Date_and_time,latitude,longitude,wind_speed,RelWindDirFrom,WindDirFrom,air_pressure,air_temperature,relative_humidity,Temp,platform_speed_wrt_ground,air_pressure_at_mean_sea_level,platform_orientation
2019-05-08 00:00,50.6304433333333,-96.980805,11.1,12.8,121,994.59,5.3,66,6.58,0.0,1022.07,270.0
2019-05-08 00:10,50.630435,-96.9807933333333,10.5,13.7,120,994.45,5.4,67,6.54,0.0,1021.92,270.0
2019-05-08 00:20,50.6304383333333,-96.98079,10.7,13.8,123,994.29,6.4,61,6.52,0.0,1021.73,270.0
2019-05-08 00:30,50.6304433333333,-96.9807866666667,10.2,13.3,126,994.18,6.0,63,6.54,0.0,1021.64,270.0
2019-05-08 00:40,50.6304166666667,-96.9807833333333,10.4,13.7,132,994.02,6.3,58,6.56,0.0,1021.44,270.0
2019-05-08 00:50,50.63045,-96.9808033333333,11.9,13.8,138,993.85,6.7,55,6.56,0.0,1021.26,270.0
2019-05-08 01:00,50.6304433333333,-96.980775,14.9,17.8,143,993.60,7.3,52,6.57,0.0,1020.96,38.0
2019-05-08 01:10,50.6304433333333,-96.9807716666667,11.5,14.2,151,993.53,7.1,57,6.58,0.0,1020.90,38.0
2019-05-08 01:20,50.630455,-96.9807733333333,12.1,13.6,151,993.49,6.8,58,6.63,0.0,1020.90,38.0
2019-05-08 01:30,50.630445,-96.9807766666667,10.9,13.1,154,993.52,6.8,60,6.63,0.0,1020.93,38.0
2019-05-08 01:40,50.6304383333333,-96.980775,11.4,13.6,154,993.48,7.2,59,6.62,0.0,1020.88,38.0
2019-05-08 01:50,50.63044,-96.98077,11.2,12.9,154,993.47,7.0,61,6.61,0.0,1020.87,38.0
2019-05-08 02:00,50.6304383333333,-96.9807683333333,10.7,12.3,157,993.47,6.9,63,6.54,0.0,1020.86,360.0
2019-05-08 02:10,50.6304366666667,-96.98077,11.2,12.3,154,993.47,6.9,63,6.51,0.0,1020.81,360.0
2019-05-08 02:20,50.6304366666667,-96.9807716666667,11.0,12.9,159,993.51,7.1,61,6.49,0.0,1020.87,360.0
2019-05-08 02:30,50.6304333333333,-96.980775,11.5,13.3,153,993.48,7.3,60,6.47,0.0,1020.81,360.0
2019-05-08 02:40,50.6304316666667,-96.9807683333333,11.1,13.4,157,993.51,7.1,60,6.48,0.0,1020.84,360.0
2019-05-08 02:50,50.63043,-96.9807783333333,11.1,13.1,155,993.49,7.1,66,6.46,0.0,1020.78,360.0
2019-05-08 03:00,50.6304316666667,-96.9807716666667,11.8,13.7,160,993.46,7.0,63,6.45,0.0,1020.77,114.9
2019-05-08 03:10,50.63045,-96.9807766666667,12.4,15.5,160,993.41,7.4,58,6.45,0.0,1020.71,114.9
2019-05-08 03:20,50.6304083333333,-96.9807816666667,11.7,13.2,162,993.53,7.4,60,6.43,0.0,1020.83,114.9
2019-05-08 03:30,50.6304516666667,-96.9807716666667,11.7,14.3,161,993.60,7.4,61,6.44,0.0,1020.89,114.9
2019-05-08 03:40,50.6304533333333,-96.98078,13.0,15.2,163,993.60,7.5,59,6.49,0.0,1020.89,114.9
2019-05-08 03:50,50.630455,-96.980775,12.1,13.5,163,993.61,7.7,60,6.59,0.0,1020.90,114.9
2019-05-08 04:00,50.6304533333333,-96.9807766666667,10.7,12.7,162,993.64,7.6,60,6.61,0.0,1020.93,360.0
2019-05-08 04:10,50.6304433333333,-96.9807783333333,10.9,12.1,163,993.53,7.3,62,6.62,0.0,1020.83,360.0
2019-05-08 04:20,50.630455,-96.9807783333333,10.3,12.0,163,993.47,7.3,59,6.63,0.0,1020.75,360.0
2019-05-08 04:30,50.630455,-96.980775,10.9,12.5,162,993.35,7.3,57,6.59,0.0,1020.64,360.0
2019-05-08 04:40,50.6304533333333,-96.980775,10.8,12.6,164,993.31,7.4,52,6.59,0.0,1020.60,360.0
2019-05-08 04:50,50.6304516666667,-96.980775,11.3,15.2,168,993.29,7.6,48,6.57,0.0,1020.57,360.0
2019-05-08 05:00,50.63045,-96.980775,12.5,15.0,173,993.23,8.0,44,6.61,0.0,1020.47,345.5
2019-05-08 05:10,50.6304483333333,-96.9807733333333,13.6,16.9,172,993.11,8.2,42,6.61,0.0,1020.33,345.5
2019-05-08 05:20,50.6304333333333,-96.9807816666667,13.9,16.0,173,992.96,8.2,42,6.60,0.0,1020.19,345.5
2019-05-08 05:30,50.6304333333333,-96.9807683333333,13.7,16.0,173,992.89,8.2,42,6.58,0.0,1020.10,345.5
2019-05-08 05:40,50.6304283333333,-96.98076,13.0,15.3,175,992.93,8.0,43,6.53,0.0,1020.14,345.5
2019-05-08 05:50,50.6304233333333,-96.9807633333333,12.6,14.9,175,992.89,7.9,42,6.49,0.0,1020.12,345.5
2019-05-08 06:00,50.6304216666667,-96.9807616666667,12.5,14.9,177,992.83,7.8,43,6.45,0.0,1020.07,143.4
2019-05-08 06:10,50.6304283333333,-96.9807633333333,12.4,15.0,182,992.77,8.0,42,6.45,0.0,1020.00,143.4
2019-05-08 06:20,50.6304316666667,-96.980765,13.0,18.5,183,992.64,8.2,42,6.45,0.0,1019.86,143.4
2019-05-08 06:30,50.6304333333333,-96.9807666666667,13.8,17.9,184,992.51,8.2,42,6.52,0.0,1019.71,143.4
2019-05-08 06:40,50.630435,-96.9807683333333,15.6,20.2,188,992.47,8.3,42,6.58,0.0,1019.65,143.4
2019-05-08 06:50,50.6304216666667,-96.9807716666667,14.8,21.3,191,992.49,8.2,42,6.62,0.0,1019.67,143.4
2019-05-08 07:00,50.6304333333333,-96.980775,15.5,20.0,189,992.44,7.9,43,6.62,0.0,1019.63,154.3
2019-05-08 07:10,50.63043,-96.9807683333333,15.2,18.8,187,992.36,7.6,45,6.64,0.0,1019.55,154.3
2019-05-08 07:20,50.63043,-96.9807666666667,14.9,19.5,188,992.32,7.4,46,6.65,0.0,1019.53,154.3
2019-05-08 07:30,50.6304316666667,-96.980765,14.0,18.3,192,992.40,7.4,46,6.66,0.0,1019.62,154.3
2019-05-08 07:40,50.6304316666667,-96.980765,13.8,19.5,193,992.43,7.3,46,6.66,0.0,1019.65,154.3
2019-05-08 07:50,50.6304333333333,-96.9807666666667,10.2,14.3,211,992.73,7.3,46,6.66,0.0,1019.97,154.3
2019-05-08 08:00,50.630435,-96.980765,9.3,13.9,213,992.93,6.8,49,6.64,0.0,1020.19,360.0
2019-05-08 08:10,50.6304333333333,-96.9807666666667,8.8,12.8,204,992.83,6.4,51,6.63,0.0,1020.10,360.0
2019-05-08 08:20,50.6304333333333,-96.9807666666667,7.6,9.6,203,992.82,6.3,51,6.61,0.0,1020.09,360.0
2019-05-08 08:30,50.6304183333333,-96.9807666666667,6.2,7.7,204,992.85,6.4,51,6.61,0.0,1020.11,360.0
2019-05-08 08:40,50.6304333333333,-96.980775,4.9,5.8,207,992.87,6.5,51,6.64,0.0,1020.13,360.0
2019-05-08 08:50,50.6304366666667,-96.9807733333333,4.4,5.6,218,992.97,6.7,50,6.64,0.0,1020.24,360.0
2019-05-08 09:00,50.6304416666667,-96.9807733333333,4.3,5.5,215,993.05,6.8,50,6.66,0.0,1020.33,327.9
2019-05-08 09:10,50.6304466666667,-96.98077,4.9,11.0,244,993.23,6.9,51,6.69,0.0,1020.52,327.9
2019-05-08 09:20,50.63043,-96.98076,9.3,14.6,348,993.39,6.8,64,6.70,0.0,1020.69,327.9
2019-05-08 09:30,50.6304333333333,-96.9807666666667,7.1,9.9,354,993.68,5.2,76,6.74,0.0,1021.06,327.9
2019-05-08 09:40,50.63044,-96.9807683333333,6.5,8.1,14,993.81,4.5,84,6.77,0.0,1021.24,327.9
2019-05-08 09:50,50.63044,-96.98077,7.0,8.0,15,993.87,3.1,98,6.79,0.0,1021.40,327.9
2019-05-08 10:00,50.6304383333333,-96.9807733333333,5.7,6.6,1,993.93,2.9,99,6.78,0.0,1021.49,360.0
2019-05-08 10:10,50.6304383333333,-96.980765,3.7,5.8,350,994.00,3.8,96,6.79,0.0,1021.52,360.0
2019-05-08 10:20,50.6304383333333,-96.980765,3.8,4.6,333,994.01,4.8,88,6.77,0.0,1021.48,360.0
2019-05-08 10:30,50.6304383333333,-96.9807616666667,3.0,4.5,342,993.87,5.1,86,6.76,0.0,1021.31,360.0
2019-05-08 10:40,50.6304383333333,-96.9807633333333,2.4,3.2,350,993.70,4.9,88,6.80,0.0,1021.14,360.0
2019-05-08 10:50,50.6304383333333,-96.9807633333333,4.7,6.9,323,993.67,4.4,91,6.66,0.0,1021.12,360.0
2019-05-08 11:00,50.6304366666667,-96.980765,4.3,6.3,320,993.65,4.8,88,6.75,0.0,1021.08,0.0
2019-05-08 11:10,50.630455,-96.9807616666667,4.2,5.8,313,993.80,4.9,87,6.83,0.0,1021.24,0.0
2019-05-08 11:20,50.6304116666667,-96.9807666666667,4.6,5.8,318,993.64,4.9,87,6.84,0.0,1021.15,0.0
2019-05-08 11:30,50.6304533333333,-96.980765,4.3,6.8,313,993.75,4.9,87,6.79,0.0,1021.30,0.0
2019-05-08 11:40,50.6304483333333,-96.9807683333333,3.4,5.6,308,993.86,5.0,87,6.72,0.0,1021.48,0.0
2019-05-08 11:50,50.6304483333333,-96.9807666666667,3.2,5.3,314,994.05,5.0,87,6.78,0.0,1021.68,0.0
2019-05-08 12:00,50.6304483333333,-96.980765,2.0,3.9,296,994.19,5.1,87,6.51,0.0,1021.77,12.6
2019-05-08 12:10,50.63045,-96.9807683333333,3.0,5.1,299,994.45,5.2,86,6.56,0.0,1022.00,12.6
2019-05-08 12:20,50.6304516666667,-96.98077,3.7,7.1,299,994.69,5.3,84,6.59,0.0,1022.22,12.6
2019-05-08 12:30,50.6304516666667,-96.98077,3.6,5.6,295,994.82,5.5,83,6.71,0.0,1022.35,12.6
2019-05-08 12:40,50.6304533333333,-96.9807766666667,2.7,4.3,276,994.98,5.5,82,6.84,0.0,1022.54,12.6
2019-05-08 12:50,50.630445,-96.9807683333333,2.3,3.5,275,995.02,5.5,82,6.86,0.0,1022.56,12.6
2019-05-08 13:00,50.630445,-96.98077,1.8,3.0,272,995.07,5.5,82,6.84,0.0,1022.61,90.0
2019-05-08 13:10,50.6304433333333,-96.9807716666667,2.0,4.0,289,995.10,5.5,82,6.85,0.0,1022.64,90.0
2019-05-08 13:20,50.630445,-96.9807716666667,2.5,4.1,300,995.20,5.6,82,6.82,0.0,1022.73,90.0
2019-05-08 13:30,50.6304616666667,-96.9808033333333,3.4,5.0,302,995.32,5.6,81,6.65,0.0,1022.86,90.0
2019-05-08 13:40,50.6304533333333,-96.9807766666667,2.9,4.6,308,995.44,5.7,79,6.76,0.0,1022.97,90.0
2019-05-08 13:50,50.6304516666667,-96.9807716666667,3.3,5.6,314,995.44,5.8,79,6.86,0.0,1022.97,90.0
2019-05-08 14:00,50.6304383333333,-96.980775,7.4,11.7,327,995.36,5.8,78,6.89,0.0,1022.88,347.4
2019-05-08 14:10,50.6304116666667,-96.9808,7.2,12.3,327,995.46,5.8,79,6.81,0.0,1022.97,347.4
2019-05-08 14:20,50.6304266666667,-96.9807833333333,6.6,10.3,334,995.59,5.7,80,6.68,0.0,1023.10,347.4
2019-05-08 14:30,50.6304166666667,-96.9807516666667,7.0,9.6,334,995.61,5.7,82,6.76,0.0,1023.12,347.4
2019-05-08 14:40,50.630435,-96.9807616666667,6.1,8.8,333,995.65,5.8,82,6.85,0.0,1023.16,347.4
2019-05-08 14:50,50.6304333333333,-96.9807666666667,5.4,8.9,327,995.84,6.1,81,6.86,0.0,1023.34,347.4
2019-05-08 15:00,50.6304333333333,-96.98077,7.5,10.5,331,995.77,6.0,81,6.85,0.0,1023.27,161.1
2019-05-08 15:10,50.6304333333333,-96.98077,4.9,8.3,325,995.89,6.3,77,6.84,0.0,1023.38,161.1
2019-05-08 15:20,50.63047,-96.9807733333333,4.9,8.4,337,995.90,6.4,75,6.87,0.0,1023.38,161.1
2019-05-08 15:30,50.6304316666667,-96.980775,4.0,7.0,8,995.80,6.7,74,6.92,0.0,1023.26,161.1
2019-05-08 15:40,50.6304533333333,-96.9807683333333,5.8,8.1,58,995.76,5.1,86,7.00,0.0,1023.29,161.1
2019-05-08 15:50,50.6304533333333,-96.9807766666667,2.8,6.5,20,995.88,4.1,90,7.03,0.0,1023.46,161.1
2019-05-08 16:00,50.6304516666667,-96.9807766666667,7.3,11.7,51,995.86,4.3,90,7.07,0.0,1023.43,360.0
2019-05-08 16:10,50.6304516666667,-96.9807816666667,8.7,10.3,52,995.85,3.9,90,7.05,0.0,1023.45,360.0
2019-05-08 16:20,50.6304483333333,-96.980775,9.8,14.6,50,995.82,4.0,88,7.00,0.0,1023.41,360.0
2019-05-08 16:30,50.6304466666667,-96.9807766666667,9.5,12.5,56,995.91,3.6,93,6.75,0.0,1023.52,360.0
2019-05-08 16:40,50.63045,-96.980775,10.4,13.3,56,995.96,3.2,96,6.43,0.0,1023.58,360.0
2019-05-08 16:50,50.6304466666667,-96.980775,10.7,15.7,54,995.95,3.3,96,6.28,0.0,1023.57,360.0
2019-05-08 17:00,50.630445,-96.980775,8.5,17.2,341,995.92,5.4,66,6.49,0.0,1023.41,90.0
2019-05-08 17:10,50.6304433333333,-96.9807733333333,11.0,19.0,315,995.80,7.4,52,6.25,0.0,1023.19,90.0
2019-05-08 17:20,50.630435,-96.9807633333333,10.9,16.2,320,995.84,7.5,52,6.02,0.0,1023.20,90.0
2019-05-08 17:30,50.63043,-96.980765,11.3,17.4,330,995.81,7.4,51,6.23,0.0,1023.27,90.0
2019-05-08 17:40,50.6304316666667,-96.980775,10.3,16.9,329,995.82,7.2,52,6.79,0.0,1023.32,90.0
2019-05-08 17:50,50.6304316666667,-96.980775,9.8,15.7,316,995.86,7.6,49,6.71,0.0,1023.34,90.0
2019-05-08 18:00,50.63043,-96.9807783333333,10.4,16.2,317,995.86,7.8,49,6.25,0.0,1023.35,246.4
2019-05-08 18:10,50.6304316666667,-96.9807766666667,7.2,15.0,323,995.82,7.8,49,5.96,0.0,1023.31,246.4
2019-05-08 18:20,50.6304316666667,-96.9807766666667,10.8,18.2,340,995.70,7.7,50,6.10,0.0,1023.21,246.4
2019-05-08 18:30,50.6304316666667,-96.980775,12.3,17.1,28,995.74,4.5,74,6.37,0.0,1023.43,246.4
2019-05-08 18:40,50.6304333333333,-96.9807733333333,11.9,16.2,29,995.84,3.1,83,6.58,0.0,1023.60,246.4
2019-05-08 18:50,50.6304466666667,-96.98076,13.0,16.4,29,995.92,2.9,86,6.83,0.0,1023.59,246.4
2019-05-08 19:00,50.6304466666667,-96.9807633333333,8.8,13.4,37,996.08,2.9,86,7.11,0.0,1023.65,167.4
2019-05-08 19:10,50.6304416666667,-96.9807616666667,11.0,14.4,41,996.12,2.8,88,7.28,0.0,1023.68,167.4
2019-05-08 19:20,50.6304416666667,-96.9807616666667,10.0,12.0,51,996.23,2.9,87,7.45,0.0,1023.80,167.4
2019-05-08 19:30,50.6304466666667,-96.980755,11.3,13.2,46,996.23,3.0,86,7.59,0.0,1023.80,167.4
2019-05-08 19:40,50.63045,-96.9807633333333,10.3,13.3,54,996.33,3.3,85,7.66,0.0,1023.88,167.4
2019-05-08 19:50,50.6304466666667,-96.980765,8.7,10.2,59,996.50,3.2,87,7.66,0.0,1024.04,167.4
2019-05-08 20:00,50.6304483333333,-96.9807683333333,9.1,11.5,52,996.47,3.2,87,7.58,0.0,1024.02,12.6
2019-05-08 20:10,50.6304583333333,-96.9807516666667,9.8,12.0,56,996.46,3.0,88,7.35,0.0,1024.01,12.6
2019-05-08 20:20,50.6304483333333,-96.9807616666667,10.6,12.5,49,996.40,2.9,90,7.03,0.0,1024.12,12.6
2019-05-08 20:30,50.6304483333333,-96.980765,10.3,11.5,56,996.45,3.0,89,6.74,0.0,1024.24,12.6
2019-05-08 20:40,50.6304516666667,-96.980765,7.1,9.2,62,996.59,2.8,93,6.48,0.0,1024.41,12.6
2019-05-08 20:50,50.6304516666667,-96.9807666666667,7.9,9.7,54,996.57,2.7,94,6.32,0.0,1024.39,12.6
2019-05-08 21:00,50.6304516666667,-96.9807683333333,9.5,11.2,49,996.53,2.4,94,6.19,0.0,1024.37,8.4
2019-05-08 21:10,50.6304333333333,-96.98078,8.0,9.9,42,996.61,2.4,96,6.14,0.0,1024.45,8.4
2019-05-08 21:20,50.6304483333333,-96.98078,6.8,9.5,31,996.66,2.5,95,6.11,0.0,1024.48,8.4
2019-05-08 21:30,50.6304433333333,-96.9807466666667,8.9,11.2,33,996.54,2.5,98,6.11,0.0,1024.35,8.4
2019-05-08 21:40,50.630445,-96.9807633333333,7.1,9.1,8,996.37,2.3,99,6.10,0.0,1024.19,8.4
2019-05-08 21:50,50.6304483333333,-96.9807666666667,6.0,7.5,12,996.28,2.3,99,6.10,0.0,1024.10,8.4
2019-05-08 22:00,50.6304316666667,-96.9807683333333,6.6,9.0,27,996.30,2.5,98,6.06,0.0,1024.12,161.1
2019-05-08 22:10,50.6304383333333,-96.9807616666667,8.1,16.1,17,996.20,2.8,94,6.12,0.0,1024.00,161.1
2019-05-08 22:20,50.6304433333333,-96.980765,17.7,20.6,14,995.72,3.1,88,6.04,0.0,1023.49,161.1
2019-05-08 22:30,50.6304433333333,-96.980765,16.8,19.8,11,995.76,3.1,88,6.24,0.0,1023.54,161.1
2019-05-08 22:40,50.6304416666667,-96.9807666666667,16.4,19.0,11,995.75,3.0,89,7.23,0.0,1023.55,161.1
2019-05-08 22:50,50.6304483333333,-96.9807766666667,15.1,17.9,15,995.78,3.0,88,7.51,0.0,1023.59,161.1
2019-05-08 23:00,50.6304516666667,-96.9807683333333,14.2,17.4,16,995.87,3.1,87,7.52,0.0,1023.68,360.0
2019-05-08 23:10,50.63045,-96.9807666666667,12.7,16.0,16,996.01,3.0,89,7.35,0.0,1023.82,360.0
2019-05-08 23:20,50.6304483333333,-96.98077,10.8,12.3,12,996.09,2.7,93,7.02,0.0,1023.92,360.0
2019-05-08 23:30,50.63043,-96.980765,11.8,14.7,15,996.10,2.6,94,6.84,0.0,1023.94,360.0
2019-05-08 23:40,50.6304483333333,-96.9807766666667,11.4,13.2,10,996.10,2.5,95,6.74,0.0,1023.95,360.0
